TimeEST,TemperatureF,Dew PointF,Humidity,Sea Level PressureIn,VisibilityMPH,Wind Direction,Wind SpeedMPH,Gust SpeedMPH,PrecipitationIn,Events,Conditions,WindDirDegrees,DateUTC
12:15 AM,35.6,33.8,93,30.04,10.0,NW,4.6,-,N/A,,Clear,320,2013-03-07 05:15:00
12:35 AM,35.6,32.0,87,30.04,-9999.0,NW,3.5,-,N/A,,Unknown,320,2013-03-07 05:35:00
12:55 AM,35.6,32.0,87,30.04,10.0,NW,4.6,-,N/A,,Unknown,320,2013-03-07 05:55:00
1:15 AM,-9999,-9999,N/A,-9999,-9999.0,North,-9999.0,-,N/A,,Unknown,0,2013-03-07 06:15:00
1:35 AM,-9999,-9999,N/A,30.05,-9999.0,NW,3.5,-,N/A,,Unknown,320,2013-03-07 06:35:00
1:55 AM,33.8,30.2,87,30.05,10.0,NNW,4.6,-,N/A,,Unknown,330,2013-03-07 06:55:00
2:15 AM,35.6,30.2,81,30.05,10.0,NW,3.5,-,N/A,,Clear,310,2013-03-07 07:15:00
2:35 AM,35.6,30.2,81,30.06,10.0,NW,4.6,-,N/A,,Clear,310,2013-03-07 07:35:00
2:55 AM,35.6,28.4,75,30.06,10.0,WNW,3.5,-,N/A,,Clear,300,2013-03-07 07:55:00
3:15 AM,35.6,28.4,75,30.07,10.0,WNW,3.5,-,N/A,,Clear,300,2013-03-07 08:15:00
3:35 AM,33.8,28.4,81,30.07,10.0,Calm,Calm,-,N/A,,Clear,0,2013-03-07 08:35:00
3:55 AM,33.8,28.4,81,30.07,10.0,NW,3.5,-,N/A,,Clear,310,2013-03-07 08:55:00
4:15 AM,33.8,28.4,81,30.08,10.0,NW,3.5,-,N/A,,Clear,310,2013-03-07 09:15:00
4:35 AM,33.8,28.4,81,30.08,10.0,NW,3.5,-,N/A,,Clear,310,2013-03-07 09:35:00
4:55 AM,33.8,28.4,81,30.09,10.0,NW,3.5,-,N/A,,Clear,320,2013-03-07 09:55:00
5:15 AM,33.8,28.4,81,30.09,10.0,NW,3.5,-,N/A,,Clear,320,2013-03-07 10:15:00
5:55 AM,33.8,28.4,81,30.12,10.0,NW,4.6,-,N/A,,Clear,310,2013-03-07 10:55:00
6:15 AM,33.8,28.4,81,30.12,10.0,Calm,Calm,-,N/A,,Clear,0,2013-03-07 11:15:00
6:35 AM,32.0,28.4,87,30.11,10.0,NNW,6.9,-,N/A,,Clear,340,2013-03-07 11:35:00
6:55 AM,33.8,28.4,81,30.12,10.0,NW,3.5,-,N/A,,Clear,320,2013-03-07 11:55:00
7:15 AM,33.8,28.4,81,30.13,10.0,NW,3.5,-,N/A,,Clear,310,2013-03-07 12:15:00
7:35 AM,35.6,30.2,81,30.15,10.0,NW,3.5,-,N/A,,Clear,310,2013-03-07 12:35:00
7:55 AM,37.4,30.2,75,30.15,10.0,NW,4.6,-,N/A,,Clear,310,2013-03-07 12:55:00
8:15 AM,39.2,30.2,70,30.16,10.0,NW,6.9,-,N/A,,Clear,310,2013-03-07 13:15:00
8:35 AM,39.2,30.2,70,30.17,10.0,NW,4.6,-,N/A,,Clear,310,2013-03-07 13:35:00
8:55 AM,42.8,32.0,66,30.18,10.0,NNW,4.6,-,N/A,,Mostly Cloudy,330,2013-03-07 13:55:00
9:15 AM,41.0,30.2,65,30.18,10.0,NW,5.8,-,N/A,,Overcast,310,2013-03-07 14:15:00
9:35 AM,41.0,32.0,70,30.19,10.0,WNW,4.6,-,N/A,,Overcast,300,2013-03-07 14:35:00
9:55 AM,42.8,32.0,66,30.19,10.0,NW,3.5,-,N/A,,Overcast,310,2013-03-07 14:55:00
10:15 AM,42.8,33.8,70,30.19,10.0,WNW,4.6,-,N/A,,Overcast,300,2013-03-07 15:15:00
10:35 AM,42.8,33.8,70,30.19,10.0,NW,5.8,-,N/A,,Overcast,320,2013-03-07 15:35:00
10:55 AM,44.6,33.8,66,30.19,10.0,NNW,10.4,-,N/A,,Overcast,340,2013-03-07 15:55:00
11:15 AM,46.4,33.8,62,30.18,10.0,NW,6.9,-,N/A,,Mostly Cloudy,320,2013-03-07 16:15:00
11:35 AM,46.4,33.8,62,30.18,10.0,NNW,10.4,18.4,N/A,,Overcast,330,2013-03-07 16:35:00
11:55 AM,48.2,33.8,58,30.17,10.0,NNW,11.5,23.0,N/A,,Mostly Cloudy,340,2013-03-07 16:55:00
12:15 PM,46.4,32.0,57,30.17,10.0,NNW,9.2,21.9,N/A,,Overcast,330,2013-03-07 17:15:00
12:35 PM,46.4,32.0,57,30.17,10.0,NNW,10.4,16.1,N/A,,Overcast,330,2013-03-07 17:35:00
12:55 PM,46.4,32.0,57,30.16,10.0,NNW,12.7,18.4,N/A,,Overcast,340,2013-03-07 17:55:00
1:15 PM,46.4,30.2,53,30.16,10.0,NW,6.9,-,N/A,,Overcast,320,2013-03-07 18:15:00
1:35 PM,46.4,30.2,53,30.15,10.0,NW,6.9,20.7,N/A,,Overcast,320,2013-03-07 18:35:00
1:55 PM,46.4,30.2,53,30.15,10.0,NNW,8.1,-,N/A,,Overcast,330,2013-03-07 18:55:00
2:15 PM,46.4,30.2,53,30.14,10.0,NW,8.1,17.3,N/A,,Overcast,320,2013-03-07 19:15:00
2:35 PM,46.4,30.2,53,30.14,10.0,NNW,9.2,-,N/A,,Overcast,330,2013-03-07 19:35:00
2:55 PM,46.4,32.0,57,30.14,10.0,NNW,8.1,-,N/A,,Overcast,330,2013-03-07 19:55:00
3:15 PM,48.2,32.0,54,30.15,10.0,NNW,12.7,23.0,N/A,,Mostly Cloudy,340,2013-03-07 20:15:00
3:35 PM,48.2,32.0,54,30.15,10.0,NNW,6.9,17.3,N/A,,Scattered Clouds,330,2013-03-07 20:35:00
3:55 PM,46.4,30.2,53,30.16,10.0,NNW,10.4,-,N/A,,Scattered Clouds,340,2013-03-07 20:55:00
4:15 PM,46.4,30.2,53,30.16,10.0,NW,8.1,-,N/A,,Overcast,320,2013-03-07 21:15:00
4:35 PM,44.6,30.2,57,30.17,10.0,North,11.5,17.3,N/A,,Overcast,350,2013-03-07 21:35:00
4:55 PM,44.6,30.2,57,30.17,10.0,NNW,11.5,-,N/A,,Overcast,340,2013-03-07 21:55:00
5:15 PM,44.6,28.4,53,30.18,10.0,NNW,13.8,18.4,N/A,,Mostly Cloudy,340,2013-03-07 22:15:00
5:35 PM,44.6,28.4,53,30.18,10.0,NNW,6.9,17.3,N/A,,Scattered Clouds,330,2013-03-07 22:35:00
5:55 PM,42.8,28.4,57,30.19,10.0,NNW,8.1,-,N/A,,Scattered Clouds,340,2013-03-07 22:55:00
6:15 PM,42.8,28.4,57,30.21,10.0,North,9.2,-,N/A,,Scattered Clouds,350,2013-03-07 23:15:00
6:35 PM,39.2,28.4,65,30.22,10.0,North,10.4,-,N/A,,Scattered Clouds,350,2013-03-07 23:35:00
6:55 PM,39.2,28.4,65,30.22,10.0,North,8.1,-,N/A,,Mostly Cloudy,350,2013-03-07 23:55:00
8:35 PM,33.8,28.4,81,30.24,10.0,Calm,Calm,-,N/A,,Clear,0,2013-03-08 01:35:00
8:55 PM,33.8,28.4,81,30.25,10.0,NNW,5.8,-,N/A,,Clear,340,2013-03-08 01:55:00
9:15 PM,33.8,26.6,75,30.24,10.0,Calm,Calm,-,N/A,,Clear,0,2013-03-08 02:15:00
9:35 PM,33.8,26.6,75,30.24,10.0,Calm,Calm,-,N/A,,Clear,0,2013-03-08 02:35:00
9:55 PM,33.8,26.6,75,30.24,10.0,Calm,Calm,-,N/A,,Clear,0,2013-03-08 02:55:00
10:15 PM,33.8,26.6,75,30.24,10.0,Calm,Calm,-,N/A,,Clear,0,2013-03-08 03:15:00
10:35 PM,35.6,26.6,70,30.24,10.0,NW,3.5,-,N/A,,Clear,310,2013-03-08 03:35:00
10:55 PM,35.6,26.6,70,30.24,10.0,Calm,Calm,-,N/A,,Clear,0,2013-03-08 03:55:00
11:15 PM,35.6,26.6,70,30.24,10.0,Calm,Calm,-,N/A,,Clear,0,2013-03-08 04:15:00
11:35 PM,35.6,26.6,70,30.24,10.0,Calm,Calm,-,N/A,,Clear,0,2013-03-08 04:35:00